This demonstration page uses our WeatherBlox Daily Observations layout. Learn more.

Left ArrowRight Arrow

39.08367, -84.50855

Hourly Observations for May 7, 2022

Temp ( °F °C ) Dew Point ( °F °C ) Humidity (%) Winds ( mph kmh ) Pressure ( in mb ) Visibility ( mi km ) Precip ( " mm )
12:02 am 00:02 Cloudy 56 13.3 54 12.2 93 93 N 10 17 29.59 1002 10 16 0.00 0.00
12:26 am 00:26 Cloudy 56 13.3 54 12.2 93 93 N 9 15 29.60 1002 10 16 0.00 0.00
12:53 am 00:53 Cloudy 55 12.8 54 12.2 96 96 NNW 8 13 29.60 1002 10 16 0.00 0.00
1:01 am 01:01 Cloudy with Light Rain 55 12.8 54 12.2 96 96 N 8 13 29.61 1003 3 4 0.00 0.00
1:08 am 01:08 Cloudy with Light Rain 55 12.8 54 12.2 96 96 N 7 11 29.61 1003 3 5 0.00 0.00
1:50 am 01:50 Cloudy with Light Rain 54 12 54 12 100 100 N 9 15 29.61 1003 2 3 0.01 0.25
1:53 am 01:53 Cloudy with Light Rain 54 12.2 54 12.2 100 100 N 9 15 29.60 1003 2 3 0.02 0.51
2:09 am 02:09 Cloudy with Light Rain 54 12.2 53 11.7 97 97 N 9 15 29.61 1003 4 6 0.00 0.00
2:26 am 02:26 Cloudy 54 12.2 53 11.7 97 97 N 7 11 29.61 1003 9 14 0.00 0.00
2:34 am 02:34 Cloudy 54 12.2 53 11.7 97 97 N 10 17 29.61 1003 10 16 0.00 0.00
2:49 am 02:49 Cloudy 54 12 54 12 100 100 N 9 15 29.61 1003 10 16 0.00 0.00
2:53 am 02:53 Cloudy 54 12.2 53 11.7 97 97 N 9 15 29.60 1003 10 16 0.00 0.00
3:53 am 03:53 Cloudy 54 12.2 53 11.7 97 97 N 9 15 29.61 1003 10 16 0.00 0.00
4:53 am 04:53 Cloudy with Mist and Fog 54 12.2 53 11.7 97 97 N 9 15 29.62 1003 5 8 0.00 0.00
5:30 am 05:30 Cloudy 53 11.7 51 10.6 93 93 N 10 17 29.64 1004 10 16 0.00 0.00
5:53 am 05:53 Cloudy 52 11.1 51 10.6 97 97 N 12 19 29.65 1004 10 16 0.00 0.00
6:53 am 06:53 Cloudy with Mist and Fog 52 11.1 51 10.6 97 97 N 8 13 29.67 1005 6 10 0.00 0.00
7:53 am 07:53 Cloudy with Mist and Fog 52 11.1 51 10.6 97 97 N 9 15 29.70 1006 6 10 0.00 0.00
8:53 am 08:53 Cloudy 53 11.7 50 10 89 89 N 14 22 29.71 1006 7 11 0.00 0.00
9:53 am 09:53 Cloudy 54 12.2 50 10 87 87 N 15 24 29.74 1007 10 16 0.00 0.00
10:53 am 10:53 Cloudy 55 12.8 50 10 83 83 N 13 20 29.75 1007 10 16 0.00 0.00
11:53 am 11:53 Cloudy 56 13.3 50 10 81 81 NNE 18 30 29.78 1008 10 16 0.00 0.00
12:53 pm 12:53 Cloudy 58 14.4 51 10.6 78 78 NNE 18 30 29.79 1009 10 16 0.00 0.00
1:53 pm 13:53 Cloudy 58 14.4 51 10.6 78 78 NE 12 19 29.80 1009 10 16 0.00 0.00
2:46 pm 14:46 Cloudy 59 15 51 10.6 75 75 NNE 16 26 29.82 1010 10 16 0.00 0.00
2:53 pm 14:53 Cloudy 59 15 50 10 72 72 NNE 13 20 29.82 1010 10 16 0.00 0.00
3:00 pm 15:00 Cloudy 59 15 50 10 72 72 NE 12 19 29.83 1010 10 16 0.00 0.00
3:53 pm 15:53 Cloudy 61 16.1 50 10 67 67 NE 14 22 29.83 1010 10 16 0.00 0.00
4:53 pm 16:53 Cloudy 62 16.7 51 10.6 67 67 NNE 10 17 29.84 1011 10 16 0.00 0.00
5:53 pm 17:53 Cloudy 61 16.1 50 10 67 67 NE 13 20 29.87 1011 10 16 0.00 0.00
6:53 pm 18:53 Cloudy 61 16.1 49 9.4 65 65 NNE 14 22 29.87 1012 10 16 0.00 0.00
7:53 pm 19:53 Cloudy 60 15.6 50 10 70 70 NNE 12 19 29.88 1012 10 16 0.00 0.00
8:53 pm 20:53 Cloudy 59 15 49 9.4 69 69 NE 10 17 29.90 1012 10 16 0.00 0.00
9:53 pm 21:53 Cloudy 58 14.4 49 9.4 72 72 NE 7 11 29.91 1013 10 16 0.00 0.00
10:53 pm 22:53 Cloudy 56 13.3 49 9.4 77 77 NNE 3 6 29.94 1014 10 16 0.00 0.00
11:53 pm 23:53 Mostly Cloudy 54 12.2 47 8.3 77 77 VRB 3 6 29.95 1014 10 16 0.00 0.00

Powered by AerisWeather